Change the Weather History Date:

Sunday, March 2, 2014

  Actual Average Record
Temperature  
Mean Temperature 65 °F -  
Max Temperature 73 °F 78 °F 86 °F (2015)
Min Temperature 57 °F 63 °F 50 °F (2005)
Growing Degree Days 15 (Base 50)    
Moisture  
Dew Point 58 °F    
Average Humidity 78    
Maximum Humidity 94    
Minimum Humidity 57    
Precipitation  
Precipitation 0.00 in - - ()
Sea Level Pressure  
Sea Level Pressure 30.01 in    
Wind  
Wind Speed 5 mph ()    
Max Wind Speed 14 mph    
Max Gust Speed -    
Visibility 6.2 miles    
Events      
Averages and records for this station are not official NWS values.
T = Trace of Precipitation, MM = Missing Value Source: Averaged Metar Reports

Daily Weather History Graph

Daily Weather History Graph

Search for Another Location

Airport or City:

Trip Planner

Search our weather history database for the weather conditions in past years. The results will help you decide how hot, cold, wet, or windy it might be!

Date:

Astronomy

Mar. 02, 2014 Rise Set
Actual Time 7:28 AM UYST 8:16 PM UYST
Civil Twilight 7:02 AM UYST 8:41 PM UYST
Nautical Twilight 6:32 AM UYST 9:11 PM UYST
Astronomical Twilight 6:01 AM UYST 9:43 PM UYST
Moon 8:48 AM UYST (3/2) 8:58 PM UYST (3/2)
Length of Visible Light 13h 39m
Length of Day
12h 47m
New Moon, 2% of the Moon is Illuminated
Mar 2
New Moon
Mar 8
First Quarter
Mar 16
Full
Mar 23
Last Quarter
Mar 30
New

Hourly Weather History & Observations

Time (UYST) Temp. Dew Point Humidity Pressure Visibility Wind Dir Wind Speed Gust Speed Precip Events Conditions
12:00 AM 62.6 °F 59.0 °F 88% 29.95 in - East 5.8 mph - N/A   Clear
1:00 AM 62.6 °F 59.0 °F 88% 29.95 in - ESE 4.6 mph - N/A   Clear
2:00 AM 62.6 °F 59.0 °F 88% 29.92 in - Calm Calm - N/A   Clear
3:00 AM 59.0 °F 55.4 °F 88% 3.07 in - Calm Calm - N/A   Clear
4:00 AM 59.0 °F 57.2 °F 94% 3.07 in - WNW 3.5 mph - N/A   Partly Cloudy
5:00 AM 59.0 °F 57.2 °F 94% 29.95 in 6.2 mi WNW 3.5 mph - N/A   Partly Cloudy
6:00 AM 57.2 °F 55.4 °F 94% 29.95 in 6.2 mi West 3.5 mph - N/A   Partly Cloudy
7:00 AM 57.2 °F 55.4 °F 94% 29.98 in 6.2 mi Calm Calm - N/A   Scattered Clouds
8:00 AM 60.8 °F 57.2 °F 88% 30.01 in 6.2 mi Calm Calm - N/A   Mostly Cloudy
9:00 AM 62.6 °F 59.0 °F 88% 30.01 in 6.2 mi WNW 5.8 mph - N/A   Mostly Cloudy
10:00 AM 64.4 °F 60.8 °F 88% 30.01 in 6.2 mi Calm Calm - N/A   Mostly Cloudy
11:00 AM 68.0 °F 62.6 °F 83% 30.01 in 6.2 mi Calm Calm - N/A   Mostly Cloudy
12:00 PM 69.8 °F 59.0 °F 68% 30.04 in 6.2 mi SW 4.6 mph - N/A   Mostly Cloudy
1:00 PM 69.8 °F 59.0 °F 68% 30.04 in 6.2 mi SSE 11.5 mph - N/A   Mostly Cloudy
2:00 PM 71.6 °F 62.6 °F 73% 30.04 in 6.2 mi SSE 11.5 mph - N/A   Mostly Cloudy
3:00 PM 73.4 °F 59.0 °F 61% 30.04 in 6.2 mi SSE 13.8 mph - N/A   Mostly Cloudy
4:00 PM 71.6 °F 59.0 °F 64% 30.04 in 6.2 mi SSE 13.8 mph - N/A   Mostly Cloudy
5:00 PM 71.6 °F 59.0 °F 64% 30.04 in 6.2 mi SSE 13.8 mph - N/A   Scattered Clouds
6:00 PM 71.6 °F 55.4 °F 57% 30.04 in 6.2 mi ESE 11.5 mph - N/A   Mostly Cloudy
7:00 PM 69.8 °F 55.4 °F 60% 30.04 in 6.2 mi East 8.1 mph - N/A   Mostly Cloudy
8:00 PM 68.0 °F 57.2 °F 68% 30.04 in - East 8.1 mph - N/A   Clear
9:00 PM 66.2 °F 55.4 °F 68% 30.06 in - East 8.1 mph - N/A   Clear
10:00 PM 64.4 °F 55.4 °F 73% 30.06 in - East 5.8 mph - N/A   Clear
11:00 PM 64.4 °F 55.4 °F 73% 30.06 in - East 8.1 mph - N/A   Clear